Location: Hains Lake
(37.8540°N, 99.8578°W)
Time: 19:50:59
(UTC+00:00)

A-11 Canister half - Visible Passes

Search period start: 19 April 2021 00:00
Search period end: 29 April 2021 00:00
Orbit: 1525 x 1683 km, 47.3° (Epoch: 18 April)

Date Brightness Start Highest point End Pass type
(mag) Time Alt. Az. Time Alt. Az. Time Alt. Az.
19 Apr 9.7 02:07:48 10° WNW 02:17:45 54° NNE 02:27:16 11° E visible
19 Apr 8.9 04:13:28 10° WNW 04:23:40 84° SW 04:25:33 65° SE visible
19 Apr 10.5 06:19:50 10° WNW 06:23:51 21° W 06:23:51 21° W visible
20 Apr 9.7 01:46:05 10° WNW 01:55:59 53° N 02:05:49 10° E visible
20 Apr 9.0 03:51:45 10° WNW 04:01:59 87° SW 04:04:59 53° SE visible
20 Apr 10.3 05:58:00 10° WNW 06:03:16 25° W 06:03:16 25° W visible
21 Apr 9.1 03:30:03 10° WNW 03:40:17 90° SW 03:44:26 42° SE visible
21 Apr 10.1 05:36:10 10° WNW 05:42:43 29° WSW 05:42:43 29° WSW visible
22 Apr 9.1 03:08:20 10° WNW 03:18:35 88° NNE 03:23:55 34° ESE visible
22 Apr 10.0 05:14:21 10° WNW 05:22:13 33° WSW 05:22:13 33° WSW visible
23 Apr 9.1 02:46:38 10° WNW 02:56:53 85° NNE 03:03:26 26° ESE visible
23 Apr 9.8 04:52:33 10° WNW 05:01:21 35° SW 05:01:44 35° SW visible
24 Apr 9.2 02:24:55 10° WNW 02:35:11 82° NNE 02:43:00 19° ESE visible
24 Apr 9.8 04:30:46 10° WNW 04:39:43 37° SW 04:41:18 36° SSW visible
25 Apr 9.2 02:03:13 10° WNW 02:13:28 80° NNE 02:22:36 14° ESE visible
25 Apr 9.8 04:08:59 10° WNW 04:18:06 40° SW 04:20:54 34° SSW visible
26 Apr 9.3 01:41:31 10° WNW 01:51:45 78° NNE 02:01:52 10° ESE visible
26 Apr 9.8 03:47:13 10° WNW 03:56:28 42° SW 04:00:32 30° S visible
27 Apr 9.8 03:25:27 10° WNW 03:34:50 44° SW 03:40:14 25° S visible
28 Apr 9.7 03:03:41 10° WNW 03:13:12 47° SW 03:19:58 20° SSE visible
